Change the Weather History Date:

Wednesday, May 1, 2013

  Actual Average Record
Temperature  
Mean Temperature 34 °F -  
Max Temperature 55 °F - - ()
Min Temperature 14 °F - - ()
Degree Days  
Heating Degree Days 30    
Moisture  
Dew Point -2 °F    
Average Humidity 22    
Maximum Humidity 49    
Minimum Humidity 7    
Precipitation  
Precipitation 0.00 in - - ()
Sea Level Pressure  
Sea Level Pressure 30.39 in    
Wind  
Wind Speed 7 mph (North)    
Max Wind Speed 17 mph    
Max Gust Speed 24 mph    
Visibility 10 miles    
Events      
T = Trace of Precipitation, MM = Missing Value Source: NWS Daily Summary

Daily Weather History Graph

Daily Weather History Graph

Search for Another Location

Airport or City:

Trip Planner

Search our weather history database for the weather conditions in past years. The results will help you decide how hot, cold, wet, or windy it might be!

Date:

Astronomy

May. 01, 2013 Rise Set
Actual Time 5:44 AM PDT 7:38 PM PDT
Civil Twilight 5:15 AM PDT 8:07 PM PDT
Nautical Twilight 4:39 AM PDT 8:43 PM PDT
Astronomical Twilight 4:01 AM PDT 9:21 PM PDT
Moon 12:50 AM PDT (5/1) 11:27 AM PDT (5/1)
Length of Visible Light 14h 52m
Length of Day
13h 53m
Waning Gibbous, 58% of the Moon is Illuminated
May 1
Waning Gibbous
May 2
Last Quarter
May 9
New
May 17
First Quarter
May 24
Full

Hourly Weather History & Observations

Time (PDT) Temp. Windchill Dew Point Humidity Pressure Visibility Wind Dir Wind Speed Gust Speed Precip Events Conditions
12:10 AM 33.8 °F - -4.0 °F 20% 30.20 in 10.0 mi Calm Calm - N/A   Clear
12:30 AM 32.0 °F 24.2 °F -7.6 °F 18% 30.21 in 10.0 mi North 9.2 mph - N/A   Clear
12:50 AM 32.0 °F 24.2 °F -5.8 °F 20% 30.22 in 10.0 mi North 9.2 mph - N/A   Clear
1:10 AM 32.0 °F 24.2 °F -4.0 °F 21% 30.22 in 10.0 mi North 9.2 mph - N/A   Clear
1:30 AM 30.2 °F 23.4 °F -4.0 °F 23% 30.23 in 10.0 mi North 6.9 mph - N/A   Clear
1:50 AM 28.4 °F 20.4 °F -4.0 °F 25% 30.24 in 10.0 mi NNE 8.1 mph - N/A   Clear
2:10 AM 32.0 °F 24.8 °F -5.8 °F 20% 30.24 in 10.0 mi North 8.1 mph - N/A   Clear
2:30 AM 28.4 °F 20.4 °F -4.0 °F 25% 30.24 in 10.0 mi North 8.1 mph - N/A   Clear
2:50 AM 26.6 °F - -4.0 °F 26% 30.25 in 10.0 mi Calm Calm - N/A   Clear
3:10 AM 24.8 °F - -2.2 °F 31% 30.25 in 10.0 mi Calm Calm - N/A   Clear
3:30 AM 19.4 °F - -7.6 °F 30% 30.26 in 10.0 mi Calm Calm - N/A   Clear
3:50 AM 19.4 °F - -0.4 °F 42% 30.27 in 10.0 mi Calm Calm - N/A   Clear
4:10 AM 17.6 °F - -2.2 °F 42% 30.27 in 10.0 mi Calm Calm - N/A   Clear
4:30 AM 17.6 °F - -4.0 °F 38% 30.28 in 10.0 mi Calm Calm - N/A   Clear
4:50 AM 15.8 °F - -0.4 °F 49% 30.29 in 10.0 mi Calm Calm - N/A   Clear
5:10 AM 17.6 °F - -0.4 °F 45% 30.30 in 10.0 mi Calm Calm - N/A   Clear
5:30 AM 14.0 °F 6.5 °F -5.8 °F 41% 30.31 in 10.0 mi ENE 4.6 mph - N/A   Clear
5:50 AM 15.8 °F - -2.2 °F 45% 30.32 in 10.0 mi Calm Calm - N/A   Clear
6:10 AM 17.6 °F 10.7 °F -2.2 °F 42% 30.33 in 10.0 mi North 4.6 mph - N/A   Clear
6:30 AM 26.6 °F 17.5 °F 5.0 °F 40% 30.34 in 10.0 mi North 9.2 mph - N/A   Clear
6:50 AM 32.0 °F 23.6 °F 5.0 °F 32% 30.35 in 10.0 mi North 10.4 mph - N/A   Clear
7:10 AM 32.0 °F 24.2 °F 8.6 °F 38% 30.36 in 10.0 mi North 9.2 mph - N/A   Clear
7:30 AM 32.0 °F 26.4 °F 8.6 °F 38% 30.37 in 10.0 mi NE 5.8 mph - N/A   Unknown
7:50 AM 35.6 °F 27.5 °F 6.8 °F 30% 30.37 in 10.0 mi North 11.5 mph - N/A   Clear
8:10 AM 35.6 °F 29.2 °F 6.8 °F 30% 30.38 in 10.0 mi North 8.1 mph - N/A   Clear
8:30 AM 37.4 °F 31.4 °F 6.8 °F 28% 30.38 in 10.0 mi NNW 8.1 mph - N/A   Clear
9:10 AM 39.2 °F 33.0 °F 6.8 °F 26% 30.39 in 10.0 mi North 9.2 mph - N/A   Clear
9:30 AM 39.2 °F 32.5 °F 5.0 °F 24% 30.40 in 10.0 mi NE 10.4 mph - N/A   Clear
9:50 AM 41.0 °F 34.3 °F 5.0 °F 23% 30.40 in 10.0 mi NNW 11.5 mph - N/A   Clear
10:10 AM 42.8 °F 37.0 °F 5.0 °F 21% 30.40 in 10.0 mi North 10.4 mph 18.4 mph N/A   Clear
10:30 AM 42.8 °F 37.5 °F 1.4 °F 18% 30.40 in 10.0 mi North 9.2 mph 18.4 mph N/A   Clear
10:50 AM 44.6 °F 38.4 °F -0.4 °F 15% 30.41 in 10.0 mi NNE 12.7 mph 17.3 mph N/A   Clear
11:10 AM 46.4 °F 40.7 °F -0.4 °F 14% 30.41 in 10.0 mi NE 12.7 mph - N/A   Clear
11:30 AM 46.4 °F 42.4 °F -7.6 °F 10% 30.41 in 10.0 mi North 8.1 mph 19.6 mph N/A   Clear
11:50 AM 48.2 °F - -2.2 °F 12% 30.41 in 10.0 mi North 10.4 mph 20.7 mph N/A   Clear
12:10 PM 48.2 °F - -4.0 °F 11% 30.41 in 10.0 mi North 15.0 mph - N/A   Clear
12:30 PM 48.2 °F - -4.0 °F 11% 30.41 in 10.0 mi North 13.8 mph 20.7 mph N/A   Clear
12:50 PM 50.0 °F - -5.8 °F 10% 30.41 in 10.0 mi North 13.8 mph 20.7 mph N/A   Clear
1:10 PM 50.0 °F - -5.8 °F 10% 30.42 in 10.0 mi North 9.2 mph 18.4 mph N/A   Clear
1:30 PM 51.8 °F - -7.6 °F 8% 30.42 in 10.0 mi North 8.1 mph 19.6 mph N/A   Clear
1:50 PM 53.6 °F - -7.6 °F 8% 30.42 in 10.0 mi NNE 16.1 mph 21.9 mph N/A   Clear
2:10 PM 53.6 °F - -9.4 °F 7% 30.42 in 10.0 mi NNE 15.0 mph 19.6 mph N/A   Clear
2:30 PM 53.6 °F - -9.4 °F 7% 30.42 in 10.0 mi North 16.1 mph 24.2 mph N/A   Clear
2:50 PM 53.6 °F - -7.6 °F 8% 30.41 in 10.0 mi North 13.8 mph 24.2 mph N/A   Clear
3:10 PM 55.4 °F - -5.8 °F 8% 30.41 in 10.0 mi North 12.7 mph 20.7 mph N/A   Clear
3:30 PM 55.4 °F - -7.6 °F 7% 30.41 in 10.0 mi North 17.3 mph 24.2 mph N/A   Clear
3:50 PM 55.4 °F - -7.6 °F 7% 30.41 in 10.0 mi NNE 12.7 mph 23.0 mph N/A   Clear
4:10 PM 55.4 °F - -7.6 °F 7% 30.41 in 10.0 mi North 12.7 mph 19.6 mph N/A   Clear
4:30 PM 55.4 °F - -9.4 °F 7% 30.41 in 10.0 mi North 11.5 mph - N/A   Clear
4:50 PM 55.4 °F - -9.4 °F 7% 30.41 in 10.0 mi North 15.0 mph 19.6 mph N/A   Clear
5:10 PM 55.4 °F - -7.6 °F 7% 30.42 in 10.0 mi NNW 13.8 mph 24.2 mph N/A   Clear
5:30 PM 53.6 °F - -5.8 °F 9% 30.42 in 10.0 mi North 13.8 mph 18.4 mph N/A   Clear
5:50 PM 53.6 °F - -5.8 °F 9% 30.42 in 10.0 mi North 13.8 mph - N/A   Clear
6:10 PM 51.8 °F - -5.8 °F 9% 30.42 in 10.0 mi North 10.4 mph 16.1 mph N/A   Clear
6:30 PM 51.8 °F - -2.2 °F 11% 30.43 in 10.0 mi North 10.4 mph - N/A   Clear
6:50 PM 50.0 °F - -0.4 °F 13% 30.43 in 10.0 mi North 11.5 mph - N/A   Clear
7:10 PM 48.2 °F - -0.4 °F 13% 30.44 in 10.0 mi North 10.4 mph - N/A   Clear
7:30 PM 44.6 °F 39.2 °F 1.4 °F 17% 30.45 in 10.0 mi North 10.4 mph - N/A   Clear
7:50 PM 41.0 °F 35.8 °F 3.2 °F 21% 30.46 in 10.0 mi North 8.1 mph - N/A   Clear
8:10 PM 39.2 °F 34.2 °F 3.2 °F 22% 30.47 in 10.0 mi North 6.9 mph - N/A   Clear
8:30 PM 37.4 °F 33.8 °F -0.4 °F 20% 30.49 in 10.0 mi North 4.6 mph - N/A   Clear
8:50 PM 35.6 °F 29.9 °F -0.4 °F 22% 30.50 in 10.0 mi NNW 6.9 mph - N/A   Clear
9:10 PM 37.4 °F 33.8 °F -2.2 °F 19% 30.51 in 10.0 mi North 4.6 mph - N/A   Clear
9:30 PM 35.6 °F - -0.4 °F 22% 30.52 in 10.0 mi Calm Calm - N/A   Clear
9:50 PM 33.8 °F - -0.4 °F 23% 30.53 in 10.0 mi Calm Calm - N/A   Clear
10:10 PM 32.0 °F - -0.4 °F 25% 30.53 in 10.0 mi Calm Calm - N/A   Clear
10:30 PM 30.2 °F - -2.2 °F 25% 30.54 in 10.0 mi Calm Calm - N/A   Clear
10:50 PM 28.4 °F 24.6 °F -2.2 °F 27% 30.54 in 10.0 mi SW 3.5 mph - N/A   Clear
11:10 PM 26.6 °F - -2.2 °F 29% 30.54 in 10.0 mi Calm Calm - N/A   Clear
11:30 PM 24.8 °F - -2.2 °F 31% 30.55 in 10.0 mi Calm Calm - N/A   Clear
11:50 PM 26.6 °F - -2.2 °F 29% 30.55 in 10.0 mi Calm Calm - N/A   Clear